Date_and_time,latitude,longitude,wind_speed,RelWindDirFrom,WindDirFrom,air_pressure,air_temperature,relative_humidity,Temp,platform_speed_wrt_ground,air_pressure_at_mean_sea_level,platform_orientation
2019-08-17 23:50,50.630455,-96.9807816666667,9.3,14.8,236,976.79,19.2,48,22.05,0.0,1002.55,360.0
2019-08-18 00:00,50.6304533333333,-96.9807783333333,9.4,14.6,248,976.76,19.2,45,22.04,0.0,1002.51,38.0
2019-08-18 00:10,50.6304533333333,-96.9807783333333,9.1,13.9,248,976.68,19.2,45,22.04,0.0,1002.43,38.0
2019-08-18 00:20,50.6304533333333,-96.98078,9.3,15.4,246,976.59,19.0,45,22.02,0.0,1002.35,38.0
2019-08-18 00:30,50.6304533333333,-96.9807783333333,9.0,15.3,244,976.72,19.0,45,22.01,0.0,1002.49,38.0
2019-08-18 00:40,50.630465,-96.9807716666667,9.2,13.4,241,976.84,18.9,44,21.99,0.0,1002.62,38.0
2019-08-18 00:50,50.6304616666667,-96.9807783333333,8.3,13.1,234,976.91,18.8,46,21.97,0.0,1002.69,38.0
2019-08-18 01:00,50.6304633333333,-96.9807766666667,6.5,10.8,238,976.99,18.7,46,21.96,0.0,1002.76,360.0
2019-08-18 01:10,50.6304566666667,-96.98078,6.4,10.1,235,977.13,18.4,48,21.97,0.0,1002.92,360.0
2019-08-18 01:20,50.630465,-96.9807783333333,6.2,9.1,234,977.17,17.9,50,21.97,0.0,1002.96,360.0
2019-08-18 01:30,50.6304633333333,-96.9807766666667,5.5,7.6,233,977.28,17.5,52,21.96,0.0,1003.08,360.0
2019-08-18 01:40,50.6304633333333,-96.9807733333333,4.4,6.6,229,977.46,17.3,54,21.94,0.0,1003.29,360.0
2019-08-18 01:50,50.6304633333333,-96.9807716666667,3.7,5.8,230,977.53,17.0,54,21.93,0.0,1003.37,360.0
2019-08-18 02:00,50.6304616666667,-96.9807716666667,2.9,4.2,232,977.57,16.8,55,21.92,0.0,1003.42,12.6
2019-08-18 02:10,50.6304616666667,-96.9807716666667,2.5,4.4,215,977.70,16.5,57,21.90,0.0,1003.57,12.6
2019-08-18 02:20,50.6304566666667,-96.9807733333333,3.6,5.0,209,977.75,16.4,58,21.89,0.0,1003.63,12.6
2019-08-18 02:30,50.6304916666667,-96.980765,3.2,4.5,222,977.87,16.1,59,21.85,0.0,1003.77,12.6
2019-08-18 02:40,50.6304666666667,-96.98077,3.0,4.7,212,977.83,16.0,60,21.85,0.0,1003.74,12.6
2019-08-18 02:50,50.630455,-96.98077,3.5,4.7,208,978.02,16.2,60,21.86,0.0,1003.93,12.6
2019-08-18 03:00,50.63046,-96.9807683333333,3.1,4.2,198,978.09,16.1,61,21.85,0.0,1004.02,66.4
2019-08-18 03:10,50.6304633333333,-96.98077,4.2,5.4,186,978.18,16.1,63,21.84,0.0,1004.13,66.4
2019-08-18 03:20,50.6304616666667,-96.98077,3.5,4.9,215,978.08,15.9,62,21.84,0.0,1004.06,66.4
2019-08-18 03:30,50.630465,-96.9807716666667,3.3,4.3,217,978.02,15.5,62,21.83,0.0,1004.03,66.4
2019-08-18 03:40,50.630465,-96.98077,4.0,5.8,212,978.14,15.5,63,21.82,0.0,1004.16,66.4
2019-08-18 03:50,50.6304666666667,-96.98077,4.6,6.1,213,978.22,15.5,63,21.82,0.0,1004.26,66.4
2019-08-18 04:00,50.6304666666667,-96.9807716666667,4.2,5.5,227,978.28,15.4,62,21.80,0.0,1004.33,38.0
2019-08-18 04:10,50.6304666666667,-96.9807716666667,4.4,5.6,238,978.44,15.3,61,21.80,0.0,1004.51,38.0
2019-08-18 04:20,50.6304666666667,-96.9807716666667,3.8,5.6,246,978.36,15.1,62,21.79,0.0,1004.44,38.0
2019-08-18 04:30,50.6304666666667,-96.98077,2.9,4.3,253,978.08,15.1,63,21.80,0.0,1004.17,38.0
2019-08-18 04:40,50.630465,-96.98077,4.1,5.6,235,978.03,14.6,66,21.80,0.0,1004.13,38.0
2019-08-18 04:50,50.630465,-96.9807716666667,4.4,5.9,248,978.08,14.3,67,21.79,0.0,1004.19,38.0
2019-08-18 05:00,50.630465,-96.9807716666667,4.2,5.3,239,978.23,14.3,67,21.77,0.0,1004.35,38.0
2019-08-18 05:10,50.6304616666667,-96.98078,4.5,5.9,242,978.33,14.3,67,21.74,0.0,1004.46,38.0
2019-08-18 05:20,50.630465,-96.9807766666667,4.3,6.5,240,978.34,14.2,67,21.73,0.0,1004.49,38.0
2019-08-18 05:30,50.6304633333333,-96.98078,3.8,5.1,253,978.09,14.3,68,21.73,0.0,1004.24,38.0
2019-08-18 05:40,50.6304533333333,-96.98077,4.3,5.9,253,977.94,14.3,68,21.71,0.0,1004.08,38.0
2019-08-18 05:50,50.6304616666667,-96.9807766666667,4.5,6.6,249,977.87,14.2,68,21.69,0.0,1004.01,38.0
2019-08-18 06:00,50.6304633333333,-96.9807766666667,4.2,5.9,249,977.91,14.0,69,21.68,0.0,1004.07,347.4
2019-08-18 06:10,50.630465,-96.9807783333333,4.4,5.8,235,978.04,13.9,70,21.63,0.0,1004.22,347.4
2019-08-18 06:20,50.630465,-96.98078,4.8,6.3,231,978.17,13.7,71,21.59,0.0,1004.36,347.4
2019-08-18 06:30,50.6304716666667,-96.9808,4.9,6.5,227,978.20,13.6,72,21.56,0.0,1004.42,347.4
2019-08-18 06:40,50.6304683333333,-96.9807866666667,5.8,8.3,228,978.25,13.5,72,21.55,0.0,1004.49,347.4
2019-08-18 06:50,50.6304666666667,-96.980785,5.7,7.5,229,978.20,13.4,73,21.54,0.0,1004.45,347.4
2019-08-18 07:00,50.6304666666667,-96.9807816666667,5.8,7.6,227,978.14,13.2,74,21.52,0.0,1004.39,270.0
2019-08-18 07:10,50.6304666666667,-96.98078,5.2,7.1,231,978.04,12.9,75,21.50,0.0,1004.31,270.0
2019-08-18 07:20,50.6304666666667,-96.9807766666667,4.7,6.0,233,977.90,12.7,76,21.48,0.0,1004.17,270.0
2019-08-18 07:30,50.6304566666667,-96.9807633333333,4.5,5.5,251,977.79,12.5,76,21.46,0.0,1004.06,270.0
2019-08-18 07:40,50.6304666666667,-96.9807616666667,4.4,5.8,241,977.76,12.4,76,21.45,0.0,1004.05,270.0
2019-08-18 07:50,50.6304683333333,-96.9807716666667,4.1,5.6,234,977.78,12.1,78,21.43,0.0,1004.09,270.0
2019-08-18 08:00,50.6304733333333,-96.9807733333333,4.1,5.5,225,977.83,12.0,79,21.41,0.0,1004.15,38.0
2019-08-18 08:10,50.6304716666667,-96.9807733333333,5.3,7.4,220,977.84,12.1,78,21.40,0.0,1004.16,38.0
2019-08-18 08:20,50.63047,-96.9807733333333,5.3,6.9,224,977.85,11.9,78,21.39,0.0,1004.19,38.0
2019-08-18 08:30,50.6304633333333,-96.9807716666667,5.9,7.9,222,977.74,11.7,79,21.38,0.0,1004.09,38.0
2019-08-18 08:40,50.6304733333333,-96.980755,5.8,7.2,226,977.66,11.5,79,21.37,0.0,1004.02,38.0
2019-08-18 08:50,50.6304783333333,-96.9807433333333,5.7,7.9,225,977.61,11.5,80,21.37,0.0,1003.98,38.0
2019-08-18 09:00,50.6304716666667,-96.9808016666667,5.4,7.7,225,977.61,11.5,80,21.35,0.0,1003.99,296.7
2019-08-18 09:10,50.6304733333333,-96.9807633333333,5.2,7.0,225,977.60,11.4,79,21.35,0.0,1004.00,296.7
2019-08-18 09:20,50.63047,-96.9807783333333,5.6,7.3,227,977.62,11.1,80,21.35,0.0,1004.04,296.7
2019-08-18 09:30,50.6304683333333,-96.9807716666667,5.7,7.7,229,977.59,10.7,81,21.33,0.0,1004.03,296.7
2019-08-18 09:40,50.6304666666667,-96.9807766666667,5.9,7.8,232,977.61,10.6,81,21.30,0.0,1004.07,296.7
2019-08-18 09:50,50.6304666666667,-96.980775,5.1,7.1,232,977.59,10.6,81,21.29,0.0,1004.06,296.7
2019-08-18 10:00,50.6304666666667,-96.9807733333333,5.7,8.0,225,977.56,10.5,81,21.28,0.0,1004.03,90.0
2019-08-18 10:10,50.6304666666667,-96.9807716666667,5.3,7.3,222,977.57,10.4,82,21.26,0.0,1004.06,90.0
2019-08-18 10:20,50.6304616666667,-96.98071,5.7,8.2,216,977.55,10.2,83,21.24,0.0,1004.05,90.0
2019-08-18 10:30,50.6304566666667,-96.980735,5.1,7.7,223,977.44,10.0,86,21.23,0.0,1003.95,90.0
2019-08-18 10:40,50.6304583333333,-96.980745,4.7,6.3,225,977.40,9.8,87,21.22,0.0,1003.92,90.0
2019-08-18 10:50,50.630495,-96.980775,5.1,6.7,228,977.39,9.7,86,21.20,0.0,1003.92,90.0
2019-08-18 11:00,50.63047,-96.980775,5.0,7.4,232,977.36,9.6,86,21.18,0.0,1003.90,90.0
2019-08-18 11:10,50.6304716666667,-96.9807816666667,4.1,5.4,233,977.38,9.4,87,21.16,0.0,1003.94,90.0
2019-08-18 11:20,50.63047,-96.9807783333333,4.0,5.4,231,977.39,9.2,88,21.15,0.0,1003.97,90.0
2019-08-18 11:30,50.6304683333333,-96.9807733333333,4.9,6.5,226,977.41,9.3,88,21.13,0.0,1004.00,90.0
2019-08-18 11:40,50.630465,-96.9807716666667,6.0,8.7,219,977.47,9.7,88,21.12,0.0,1004.04,90.0
2019-08-18 11:50,50.63047,-96.980765,5.8,8.6,219,977.50,10.1,88,21.11,0.0,1004.06,90.0
2019-08-18 12:00,50.6304533333333,-96.9807783333333,4.8,7.0,219,977.58,10.5,87,21.09,0.0,1004.13,360.0
2019-08-18 12:10,50.6304633333333,-96.980775,5.5,8.4,220,977.72,10.6,85,21.08,0.0,1004.28,360.0
2019-08-18 12:20,50.6304583333333,-96.9807733333333,6.0,7.9,222,977.75,10.6,85,21.06,0.0,1004.31,360.0
2019-08-18 12:30,50.6304566666667,-96.980775,6.1,8.1,217,977.85,10.7,85,21.04,0.0,1004.42,360.0
2019-08-18 12:40,50.6304566666667,-96.9807766666667,6.1,8.9,221,977.95,11.1,84,21.03,0.0,1004.51,360.0
2019-08-18 12:50,50.6304566666667,-96.9807766666667,6.2,9.0,222,978.00,11.3,84,21.01,0.0,1004.56,360.0
2019-08-18 13:00,50.6304583333333,-96.9807766666667,6.3,8.6,219,977.92,11.5,84,20.99,0.0,1004.48,360.0
2019-08-18 13:10,50.6304583333333,-96.9807766666667,6.1,8.5,221,977.91,11.8,85,20.96,0.0,1004.46,360.0
2019-08-18 13:20,50.6304583333333,-96.9807733333333,7.7,10.0,220,977.92,11.9,84,20.94,0.0,1004.45,360.0
2019-08-18 13:30,50.6304566666667,-96.9807733333333,6.9,9.3,214,977.92,12.5,84,20.92,0.0,1004.42,360.0
2019-08-18 13:40,50.6304566666667,-96.9807733333333,7.3,11.4,214,977.94,13.1,80,20.91,0.0,1004.38,360.0
2019-08-18 13:50,50.630455,-96.9807816666667,7.8,11.9,219,977.93,13.5,77,20.91,0.0,1004.34,360.0
2019-08-18 14:00,50.6304583333333,-96.980775,7.6,10.7,225,977.95,14.0,73,20.91,0.0,1004.33,360.0
2019-08-18 14:10,50.63046,-96.980775,9.4,12.8,232,978.04,14.5,68,20.90,0.0,1004.40,360.0
2019-08-18 14:20,50.63046,-96.980775,9.7,14.4,233,978.09,14.7,66,20.90,0.0,1004.44,360.0
2019-08-18 14:30,50.630475,-96.9807966666667,8.1,12.3,231,978.13,15.1,63,20.90,0.0,1004.44,360.0
2019-08-18 14:40,50.6304633333333,-96.9808183333333,8.3,15.3,237,978.18,15.5,60,20.90,0.0,1004.47,360.0
2019-08-18 14:50,50.6304716666667,-96.9807883333333,11.3,15.7,230,978.23,15.7,56,20.91,0.0,1004.49,360.0
2019-08-18 15:00,50.630455,-96.9807716666667,7.7,12.0,238,978.26,16.1,55,20.92,0.0,1004.50,90.0
2019-08-18 15:10,50.630455,-96.9807716666667,7.6,12.5,254,978.25,16.6,49,20.94,0.0,1004.45,90.0
2019-08-18 15:20,50.630455,-96.9807716666667,8.3,14.2,261,978.29,16.8,45,20.95,0.0,1004.46,90.0
2019-08-18 15:30,50.6304566666667,-96.9807733333333,8.2,16.3,256,978.28,17.1,42,20.97,0.0,1004.41,90.0
2019-08-18 15:40,50.63044,-96.9807716666667,10.7,18.6,251,978.24,17.3,41,20.99,0.0,1004.34,90.0
2019-08-18 15:50,50.6304466666667,-96.9807866666667,9.7,18.1,255,978.22,17.4,37,21.03,0.0,1004.29,90.0
2019-08-18 16:00,50.63046,-96.98079,10.0,17.6,246,978.18,17.7,35,21.06,0.0,1004.21,270.0
2019-08-18 16:10,50.63044,-96.980775,10.1,16.3,246,978.13,17.8,34,21.08,0.0,1004.15,270.0
2019-08-18 16:20,50.63044,-96.98077,9.8,17.8,248,978.11,17.8,34,21.10,0.0,1004.11,270.0
2019-08-18 16:30,50.630445,-96.980775,10.8,19.2,240,978.14,18.1,33,21.10,0.0,1004.11,270.0
2019-08-18 16:40,50.6304416666667,-96.980775,11.7,18.4,249,978.15,18.1,33,21.10,0.0,1004.11,270.0
2019-08-18 16:50,50.6304483333333,-96.98078,10.2,16.3,247,978.16,18.2,32,21.11,0.0,1004.10,270.0
2019-08-18 17:00,50.630455,-96.9807833333333,9.8,15.4,239,978.18,18.2,32,21.12,0.0,1004.10,234.7
2019-08-18 17:10,50.630455,-96.980785,9.4,18.0,248,978.14,18.3,31,21.13,0.0,1004.04,234.7
2019-08-18 17:20,50.630455,-96.9807866666667,10.9,19.7,233,978.17,18.5,32,21.13,0.0,1004.05,234.7
2019-08-18 17:30,50.6304566666667,-96.9807866666667,9.3,15.2,251,978.17,18.8,32,21.15,0.0,1004.02,234.7
2019-08-18 17:40,50.6304566666667,-96.980785,12.3,18.5,234,978.27,18.8,33,21.18,0.0,1004.13,234.7
2019-08-18 17:50,50.6304566666667,-96.980785,12.2,18.1,233,978.32,18.8,34,21.22,0.0,1004.16,234.7
2019-08-18 18:00,50.6304566666667,-96.980785,11.7,18.5,230,978.33,18.8,34,21.25,0.0,1004.17,270.0
2019-08-18 18:10,50.6304566666667,-96.9807833333333,13.9,20.1,230,978.37,18.9,35,21.26,0.0,1004.21,270.0
2019-08-18 18:20,50.63045,-96.9807733333333,11.4,19.1,227,978.31,19.0,34,21.26,0.0,1004.13,270.0
2019-08-18 18:30,50.6304483333333,-96.980775,13.2,21.0,238,978.33,19.1,34,21.28,0.0,1004.14,270.0
2019-08-18 18:40,50.6304466666667,-96.9807783333333,9.9,19.4,251,978.34,19.3,34,21.30,0.0,1004.14,270.0
2019-08-18 18:50,50.6304533333333,-96.98077,12.5,21.4,226,978.43,19.1,34,21.30,0.0,1004.24,270.0
2019-08-18 19:00,50.6304566666667,-96.9807766666667,12.3,20.9,229,978.40,19.2,34,21.32,0.0,1004.20,113.6
2019-08-18 19:10,50.6304533333333,-96.9807833333333,13.1,20.3,235,978.53,19.6,33,21.34,0.0,1004.31,113.6
2019-08-18 19:20,50.6304466666667,-96.9807766666667,9.2,15.5,256,978.52,19.8,31,21.38,0.0,1004.27,113.6
2019-08-18 19:30,50.6304466666667,-96.9807833333333,12.4,19.5,247,978.56,20.0,30,21.41,0.0,1004.32,113.6
2019-08-18 19:40,50.63042,-96.9808133333333,11.3,18.0,240,978.53,20.0,28,21.42,0.0,1004.28,113.6
2019-08-18 19:50,50.630435,-96.9807966666667,11.5,19.1,243,978.50,20.4,26,21.44,0.0,1004.23,113.6
2019-08-18 20:00,50.63045,-96.9807716666667,13.0,20.3,241,978.51,20.6,25,21.50,0.0,1004.23,90.0
2019-08-18 20:10,50.63044,-96.98078,13.1,22.5,238,978.46,20.6,24,21.50,0.0,1004.16,90.0
2019-08-18 20:20,50.630445,-96.9807783333333,12.0,17.7,229,978.35,20.9,23,21.53,0.0,1004.05,90.0
2019-08-18 20:30,50.630445,-96.9807783333333,15.1,20.9,222,978.30,20.9,22,21.57,0.0,1003.98,90.0
2019-08-18 20:40,50.630445,-96.9807783333333,13.8,21.9,228,978.30,21.0,21,21.57,0.0,1003.99,90.0
2019-08-18 20:50,50.630445,-96.98078,12.3,21.1,247,978.23,21.3,18,21.57,0.0,1003.90,90.0
2019-08-18 21:00,50.630445,-96.98078,12.1,21.4,238,978.19,21.5,18,21.56,0.0,1003.83,360.0
2019-08-18 21:10,50.6304583333333,-96.9807783333333,11.4,16.6,233,978.16,21.7,19,21.55,0.0,1003.78,360.0
2019-08-18 21:20,50.63046,-96.9807783333333,12.9,22.4,232,978.10,21.7,19,21.53,0.0,1003.71,360.0
2019-08-18 21:30,50.6304716666667,-96.9807966666667,11.5,20.9,248,978.01,22.0,18,21.52,0.0,1003.60,360.0
2019-08-18 21:40,50.63046,-96.9807916666667,11.8,17.8,250,977.97,22.1,18,21.51,0.0,1003.54,360.0
2019-08-18 21:50,50.6304566666667,-96.98078,11.3,17.3,244,977.93,22.3,18,21.52,0.0,1003.48,360.0
2019-08-18 22:00,50.63045,-96.980775,13.5,20.9,249,977.90,22.4,18,21.53,0.0,1003.45,90.0
2019-08-18 22:10,50.6304466666667,-96.980775,10.6,19.3,254,977.91,22.7,19,21.51,0.0,1003.43,90.0
2019-08-18 22:20,50.6304483333333,-96.9807866666667,10.8,20.8,256,977.90,22.7,19,21.48,0.0,1003.42,90.0
2019-08-18 22:30,50.6304466666667,-96.9807833333333,11.9,17.8,238,977.91,22.6,20,21.49,0.0,1003.43,90.0
2019-08-18 22:40,50.630445,-96.98079,11.5,19.5,244,977.86,22.7,20,21.49,0.0,1003.36,90.0
2019-08-18 22:50,50.6304383333333,-96.980795,13.5,23.1,249,977.79,22.7,21,21.49,0.0,1003.28,90.0
2019-08-18 23:00,50.6304366666667,-96.98079,11.3,18.8,236,977.77,22.7,23,21.50,0.0,1003.25,211.1
2019-08-18 23:10,50.6304466666667,-96.980805,13.1,19.9,236,977.80,22.8,24,21.50,0.0,1003.28,211.1
2019-08-18 23:20,50.6304416666667,-96.9807883333333,14.1,20.1,230,977.79,22.5,26,21.51,0.0,1003.27,211.1
2019-08-18 23:30,50.6304416666667,-96.9807866666667,13.6,18.5,229,977.79,22.1,27,21.49,0.0,1003.29,211.1
